Tracking 19976 objects as of 15-Nov-2019
Live streaming from Space Station
objects crossing your sky now
Track the group of recently launched Starlink satellites

COSMOS 249 DEB

Track COSMOS 249 DEB now!
10-day predictions


NORAD ID: 19362
Int'l Code: 1968-091DJ
Perigee: 485.2 km
Apogee: 1,337.3 km
Inclination: 62.8 °
Period: 103.1 minutes
Semi major axis: 7282 km
RCS: 0.01 m2 (small)
Launch date: October 20, 1968
Source: Commonwealth of Independent States (former USSR) (CIS)
Launch site: TYURATAM MISSILE AND SPACE COMPLEX (TTMTR)

Note: This is SATELLITE DEBRIS
aabbcc
Your satellite tracking list
Your tracking list is empty




NASA's NSSDC Master Catalog

Two Line Element Set (TLE):
1 19362U 68091DJ  19317.70098667 +.00000945 +00000-0 +17810-3 0  9997
2 19362 062.7779 165.6404 0585039 069.4214 296.8577 13.97029311581490
Source of the keplerian elements: AFSPC